Location: Les Salelles
(44.4192°N, 4.1044°E)
Time: 19:26:18
(UTC+00:00)

COSMO-SKYMED 1 - Pass Details

Date: 20 January 2021
Orbit: 621 x 623 km, 97.9° (Epoch: 04 March)

Event Time Altitude Azimuth Distance (km) Brightness Sun altitude
Rises 17:56:25 0° 12° (NNE) 2,915 5.8 -14.1°
Reaches altitude 10° 17:58:37 10° 12° (NNE) 2,004 4.9 -14.5°
Maximum altitude 18:02:59 85° 283° (WNW) 632 2.6 -15.2°
Drops below altitude 10° 18:07:19 10° 196° (SSW) 1,986 5.5 -16.0°
Sets 18:09:29 0° 196° (SSW) 2,888 6.4 -16.4°
